Kirkville, IA

6:34 PM CDT on September 25, 2016 (GMT -0500)
Ottumwa Industrial

Weather History for KOTM - July, 2013

Change the Weather History Date:

Monday, July 29, 2013

  Actual Average Record
Temperature  
Mean Temperature 63 °F 75 °F  
Max Temperature 76 °F 85 °F 104 °F (1941)
Min Temperature 49 °F 64 °F 49 °F (2013)
Degree Days  
Heating Degree Days 2 0  
Month to date heating degree days 10 0  
Since 1 June heating degree days 36 21  
Since 1 July heating degree days 10 0  
Cooling Degree Days 0 10  
Month to date cooling degree days 255 290  
Year to date cooling degree days 530 555  
Since 1 June cooling degree days 453 491  
Growing Degree Days 12 (Base 50)    
Moisture  
Dew Point 55 °F    
Average Humidity 69    
Maximum Humidity 89    
Minimum Humidity 49    
Precipitation  
Precipitation T in 0.13 in 2.47 in (1910)
Month to date precipitation 1.04 4.19  
Year to date precipitation 27.18 21.81  
Sea Level Pressure  
Sea Level Pressure 30.10 in    
Wind  
Wind Speed 6 mph (SE)    
Max Wind Speed 13 mph    
Max Gust Speed 17 mph    
Visibility 10 miles    
Events      
T = Trace of Precipitation, MM = Missing Value Source: NWS Daily Summary

Daily Weather History Graph

Daily Weather History Graph

Search for Another Location

Airport or City:

Trip Planner

Search our weather history database for the weather conditions in past years. The results will help you decide how hot, cold, wet, or windy it might be!

Date:

Astronomy

Jul. 29, 2013 Rise Set
Actual Time 6:02 AM CDT 8:29 PM CDT
Civil Twilight 5:31 AM CDT 9:00 PM CDT
Nautical Twilight 4:52 AM CDT 9:38 PM CDT
Astronomical Twilight 4:09 AM CDT 10:21 PM CDT
Moon No Moon Rise 1:50 PM CDT (7/29)
Length of Visible Light 15h 28m
Length of Day
14h 26m
Waning Gibbous, 50% of the Moon is Illuminated
Jul 29
Waning Gibbous
Jul 29
Last Quarter
Aug 6
New
Aug 14
First Quarter
Aug 20
Full

Hourly Weather History & Observations

Time (CDT) Temp. Dew Point Humidity Pressure Visibility Wind Dir Wind Speed Gust Speed Precip Events Conditions
12:53 AM 55.9 °F 51.1 °F 84% 30.07 in 10.0 mi East 3.5 mph - N/A   Clear
1:53 AM 54.0 °F 50.0 °F 86% 30.08 in 10.0 mi East 4.6 mph - N/A   Clear
2:53 AM 53.1 °F 50.0 °F 89% 30.09 in 10.0 mi Calm Calm - N/A   Clear
3:53 AM 52.0 °F 48.0 °F 86% 30.09 in 10.0 mi Calm Calm - N/A   Clear
4:53 AM 54.0 °F 50.0 °F 86% 30.09 in 10.0 mi Calm Calm - N/A   Clear
5:53 AM 52.0 °F 48.9 °F 89% 30.11 in 10.0 mi ENE 3.5 mph - N/A   Clear
6:53 AM 53.1 °F 50.0 °F 89% 30.12 in 10.0 mi East 3.5 mph - N/A   Clear
7:53 AM 61.0 °F 54.0 °F 78% 30.14 in 10.0 mi ESE 3.5 mph - N/A   Clear
8:53 AM 64.9 °F 55.0 °F 70% 30.14 in 10.0 mi SE 6.9 mph - N/A   Clear
9:53 AM 70.0 °F 55.0 °F 59% 30.12 in 10.0 mi SSE 8.1 mph - N/A   Clear
10:53 AM 71.1 °F 55.9 °F 59% 30.11 in 10.0 mi SE 9.2 mph - N/A   Clear
11:53 AM 70.0 °F 55.9 °F 61% 30.13 in 10.0 mi SSE 6.9 mph - N/A   Clear
12:53 PM 73.9 °F 57.0 °F 55% 30.12 in 10.0 mi South 9.2 mph - N/A   Scattered Clouds
1:53 PM 72.0 °F 55.0 °F 55% 30.12 in 10.0 mi SSE 8.1 mph - N/A   Overcast
2:53 PM 73.9 °F 54.0 °F 50% 30.10 in 10.0 mi SE 11.5 mph - N/A   Clear
3:53 PM 73.9 °F 55.9 °F 53% 30.12 in 10.0 mi SSE 6.9 mph - N/A   Mostly Cloudy
4:53 PM 73.0 °F 57.9 °F 59% 30.10 in 10.0 mi SE 8.1 mph - N/A   Overcast
5:53 PM 73.0 °F 57.9 °F 59% 30.10 in 10.0 mi SSE 8.1 mph - N/A   Mostly Cloudy
6:53 PM 72.0 °F 57.9 °F 61% 30.09 in 10.0 mi South 9.2 mph - 0.00 in   Overcast
7:53 PM 70.0 °F 57.0 °F 63% 30.07 in 10.0 mi SSE 5.8 mph - N/A   Overcast
8:53 PM 68.0 °F 57.0 °F 68% 30.09 in 10.0 mi SSE 5.8 mph - N/A   Overcast
9:53 PM 68.0 °F 57.9 °F 70% 30.09 in 10.0 mi ESE 5.8 mph - N/A   Overcast
10:53 PM 66.9 °F 59.0 °F 76% 30.10 in 10.0 mi ESE 4.6 mph - N/A   Overcast
11:53 PM 66.9 °F 60.1 °F 79% 30.09 in 10.0 mi East 5.8 mph - N/A   Overcast